Regional Weather Roundup
Issued by NWS

Home | Current Version | Previous Version | Text Only | Print | Product List | Glossary On
Versions: 1 2 3 4 5 6 7 8 9 10 11 12 13 14 15 16 17 18 19 20 21 22 23 24 25 26 27 28 29 30 31 32 33 34 35 36 37 38 39 40 41 42 43 44 45 46 47 48 49 50
000
ASUS44 KFWD 261815
RWRTX
NORTH TEXAS HOURLY WEATHER ROUNDUP
NATIONAL WEATHER SERVICE FORT WORTH TX
100 PM CDT TUE SEP 26 2017

NOTE: "FAIR" INDICATES FEW OR NO CLOUDS BELOW 12,000 FEET WITH NO
SIGNIFICANT WEATHER AND/OR OBSTRUCTIONS TO VISIBILITY.

TXZ118-119-261900-
DALLAS/FORT WORTH METROPLEX

CITY           SKY/WX    TMP DP  RH WIND       PRES   REMARKS
DFW AIRPORT    CLOUDY    88  66  48 CALM      29.93F HX  90
6HR MIN TEMP:  77; 6HR MAX TEMP:  88;

DALLAS LOVE    CLOUDY    87  65  47 S9        29.94F
6HR MIN TEMP:  77; 6HR MAX TEMP:  87;

FTW MEACHAM    CLOUDY    87  68  52 CALM      29.93F HX  90
6HR MIN TEMP:  76; 6HR MAX TEMP:  87;

DAL-EXECUTIVE  CLOUDY    87  67  51 VRB5      29.93F HX  90
6HR MIN TEMP:  74; 6HR MAX TEMP:  88;

FTW-ALLIANCE   CLOUDY    85  68  56 S5        29.95S
6HR MIN TEMP:  73; 6HR MAX TEMP:  85;

FTW-NAS-JRB    CLOUDY    87  66  49 CALM      29.94F
6HR MIN TEMP:  75; 6HR MAX TEMP:  87;

FTW-SPINKS     PTSUNNY   88  63  42 SE6       29.95F
ARLINGTON      CLOUDY    86  65  49 VRB6      29.93F
6HR MIN TEMP:  76; 6HR MAX TEMP:  88;

GRAND PRAIRIE  SUNNY     86  63  45 E8        29.95F
ADDISON        CLOUDY    84  66  54 SW6       29.95F
MESQUITE       PTSUNNY   90  64  43 SE3       29.94F HX  91
LANCASTER      CLOUDY    87  65  48 CALM      29.94F
6HR MIN TEMP:  72; 6HR MAX TEMP:  87;

$$

TXZ091>094-102>105-117-120-121-131>134-261900-
NORTH CENTRAL TEXAS

CITY           SKY/WX    TMP DP  RH WIND       PRES   REMARKS
SHRMAN/DENISON CLOUDY    84  67  56 S3        29.97F
6HR MIN TEMP:  73; 6HR MAX TEMP:  84;

BOWIE          CLOUDY    76  73  88 SE3       29.97F
6HR MIN TEMP:  68; 6HR MAX TEMP:  76;

BRIDGEPORT     CLOUDY    76  73  90 E3        29.98F
6HR MIN TEMP:  71; 6HR MAX TEMP:  76;

DECATUR        CLOUDY    78  73  85 E3        29.96F
6HR MIN TEMP:  70; 6HR MAX TEMP:  78; 6HR PCP:  0.01;

DENTON         CLOUDY    82  68  62 S5        29.95F
6HR MIN TEMP:  72; 6HR MAX TEMP:  82;

MCKINNEY       PTSUNNY   84  69  60 S5        29.95F
6HR MIN TEMP:  73; 6HR MAX TEMP:  84;

BONHAM         MOSUNNY   85  66  52 CALM      29.96F
6HR MIN TEMP:  70; 6HR MAX TEMP:  86;

GREENVILLE     PTSUNNY   90  64  43 S6        29.95F HX  91
ROCKWALL       PTSUNNY   86  67  53 SE3       29.95F
6HR MIN TEMP:  73; 6HR MAX TEMP:  87;

TERRELL        MOSUNNY   87  65  47 CALM      29.94F
6HR MIN TEMP:  72; 6HR MAX TEMP:  89;

WAXAHACHIE     CLOUDY    88  67  48 SW5       29.95F HX  91
6HR MIN TEMP:  72; 6HR MAX TEMP:  89;

GRANBURY       PTSUNNY   86  68  53 S5        29.94F
6HR MIN TEMP:  74; 6HR MAX TEMP:  86; 6HR PCP:  0.01;

$$

TXZ083>090-098>101-113>116-127>130-139>142-154-155-261900-
WESTERN NORTH TEXAS

CITY           SKY/WX    TMP DP  RH WIND       PRES   REMARKS
WICHITA FALLS  LGT RAIN  74  70  87 NE12      29.96
6HR MIN TEMP:  69; 6HR MAX TEMP:  74; 6HR PCP:  0.47;

WF-KICKAPOO    CLOUDY    76  72  87 E6        29.98F
6HR MIN TEMP:  70; 6HR MAX TEMP:  76; 6HR PCP:  0.24;

VERNON         CLOUDY    67  63  87 N10G21    30.02S
6HR MIN TEMP:  67; 6HR MAX TEMP:  85; 6HR PCP:  2.14;

ABILENE        LGT RAIN  71  71 100 S7        29.96F FOG
6HR MIN TEMP:  71; 6HR MAX TEMP:  77; 6HR PCP:  0.04;

ABILENE-DYESS  PTSUNNY   77  73  88 SE10      29.94F
6HR MIN TEMP:  69; 6HR MAX TEMP:  78; 6HR PCP:  0.03;

GRAHAM         CLOUDY    78  72  82 E3        29.94F
6HR MIN TEMP:  71; 6HR MAX TEMP:  78;

BRECKENRIDGE   PTSUNNY   80  69  67 SE9       29.94F HAZE
6HR MIN TEMP:  73; 6HR MAX TEMP:  82;

CISCO          CLOUDY    77  72  83 SE6       29.98S
EASTLAND       CLOUDY    77  70  77 SE5       29.96S
6HR MIN TEMP:  71; 6HR MAX TEMP:  78;

RANGER         CLOUDY    78  70  77 S6        29.96F
6HR MIN TEMP:  64; 6HR MAX TEMP:  97;

MINERAL WELLS  CLOUDY    82  70  66 VRB5      29.94F
6HR MIN TEMP:  72; 6HR MAX TEMP:  82;

STEPHENVILLE   PTSUNNY   81  69  68 S5        29.98F
6HR MIN TEMP:  72; 6HR MAX TEMP:  81;

COMANCHE       CLOUDY    81  72  72 SE7       29.95F
6HR MIN TEMP:  70; 6HR MAX TEMP:  82;

COLEMAN        CLOUDY    72  69  91 SE3       29.97S
6HR MIN TEMP:  70; 6HR MAX TEMP:  76;

$$

TXZ143>147-156>162-174-175-261900-
CENTRAL TEXAS

CITY           SKY/WX    TMP DP  RH WIND       PRES   REMARKS
WACO           PTSUNNY   87  67  51 VRB5      29.91F HX  90
6HR MIN TEMP:  73; 6HR MAX TEMP:  89;

WACO-TSTC      MOSUNNY   91  63  38 S9        29.91F HX  92
WACO-MCGREGOR  PTSUNNY   87  68  52 VRB3      29.92F HX  90
6HR MIN TEMP:  74; 6HR MAX TEMP:  89;

HILLSBORO      MOSUNNY   87  66  50 S3        29.93F
6HR MIN TEMP:  73; 6HR MAX TEMP:  87;

CORSICANA      MOSUNNY   89  66  46 VRB6      29.94F HX  91
6HR MIN TEMP:  72; 6HR MAX TEMP:  89;

MEXIA          MOSUNNY   88  64  44 SE9       29.92F HX  90
6HR MIN TEMP:  68; 6HR MAX TEMP:  88;

HEARNE         CLOUDY    85  72  64 SE5       29.92F HX  90
CAMERON        PTSUNNY   86  70  58 SE7       29.91F HX  91
6HR MIN TEMP:  72; 6HR MAX TEMP:  88;

TEMPLE         CLOUDY    85  71  63 E8        29.92F HX  90
6HR MIN TEMP:  73; 6HR MAX TEMP:  88;

KILLEEN        PTSUNNY   84  68  57 SE8       29.91F
FORT HOOD      CLOUDY   N/A N/A N/A SE7       29.89F
GATESVILLE     PTSUNNY   84  68  58 VRB5      29.94S
HAMILTON       CLOUDY    82  68  60 SE6       29.95F
6HR MIN TEMP:  71; 6HR MAX TEMP:  83;

$$

TXZ095>097-106>112-122>126-135>138-148>153-164>167-261900-
EAST TEXAS

CITY           SKY/WX    TMP DP  RH WIND       PRES   REMARKS
PARIS          SUNNY     87  68  52 VRB3      29.96F HX  90
6HR MIN TEMP:  69; 6HR MAX TEMP:  87;

SULPHUR SPRNGS MOSUNNY   89  64  44 E7        29.97F HX  90
6HR MIN TEMP:  71; 6HR MAX TEMP:  89;

MOUNT PLEASANT SUNNY     87  66  50 E3        29.96F
6HR MIN TEMP:  64; 6HR MAX TEMP:  87;

GILMER         PTSUNNY   87  67  51 E6        29.95F
6HR MIN TEMP:  65; 6HR MAX TEMP:  87;

MINEOLA        MOSUNNY   88  66  48 S5        29.94F HX  90
TYLER          MOSUNNY   89  65  44 MISG      29.94F HX  91
6HR MIN TEMP:  69; 6HR MAX TEMP:  89;

LONGVIEW       PTSUNNY   88  69  53 NE7       29.93F HX  92
6HR MIN TEMP:  66; 6HR MAX TEMP:  90;

MARSHALL       MOSUNNY   85  64  48 MISG      29.96F
6HR MIN TEMP:  65; 6HR MAX TEMP:  90;

ATHENS         MOSUNNY   86  64  48 SE7       29.92F
PALESTINE      MOSUNNY   88  69  54 SE5       29.95S HX  92
JACKSONVILLE   MOSUNNY   85  70  60 NE6       29.97S
HENDERSON      MOSUNNY   89  67  47 E6G16     29.95F HX  92
6HR MIN TEMP:  65; 6HR MAX TEMP:  90;

CENTER         PTCLDY    91  69  48 NE7       29.95F HX  95
6HR MIN TEMP:  69; 6HR MAX TEMP:  91;

NACOGDOCHES    MOSUNNY   86  69  56 CALM      29.94F HX  90
6HR MIN TEMP:  64; 6HR MAX TEMP:  87;

LUFKIN         PTSUNNY   86  69  56 NE5       29.93F HX  90
6HR MIN TEMP:  68; 6HR MAX TEMP:  87;

$$

SUPPLEMENTAL OBSERVATIONS (NWS FORT WORTH AREA)

CITY           SKY/WX    TMP DP  RH WIND       PRES   REMARKS
DENISON DAM      N/A     82  66  57 SW3         N/A
CADDO GRASSLND   N/A     90  68  48 SW3         N/A  HX  93
PAT MAYSE LAKE   N/A     84  68  58 SW2         N/A
GREENVILLE       N/A     91  66  43 N3          N/A  HX  94
CEDAR HILL       N/A     91  66  43 SE3G13      N/A  HX  94
LBJ GRASSLAND    N/A     79  72  78 E3          N/A
POSSUM KINGDOM   N/A     79  73  83 E5          N/A
GRANBURY         N/A     88  68  51 SE5         N/A  HX  91
COMANCHE         N/A     82  70  65 E8          N/A
MCGREGOR         N/A     88  66  48 SE7         N/A  HX  90



USA.gov is the U.S. government's official web portal to all federal, state and local government web resources and services.